Weather History for KRST - June, 2013

Change the Weather History Date:

Tuesday, June 25, 2013

  Actual Average Record
Temperature  
Mean Temperature 74 °F 70 °F  
Max Temperature 83 °F 81 °F 99 °F (1934)
Min Temperature 64 °F 60 °F 42 °F (1957)
Degree Days  
Heating Degree Days 0 1  
Month to date heating degree days 60 51  
Since 1 June heating degree days 60  
Since 1 July heating degree days 7825 7721  
Cooling Degree Days 9 6  
Month to date cooling degree days 96 98  
Year to date cooling degree days 126 132  
Since 1 June cooling degree days 96  
Growing Degree Days 23 (Base 50)    
Moisture  
Dew Point 67 °F    
Average Humidity 81    
Maximum Humidity 93    
Minimum Humidity 69    
Precipitation  
Precipitation 1.12 in 0.15 in 4.18 in (1913)
Month to date precipitation 6.42 3.90  
Year to date precipitation 30.32 14.34  
Snow  
Snow 0.00 in 0.00 in 0.00 in (2012)
Month to date snowfall 0.0 0.0  
Since 1 June snowfall 0.0  
Since 1 July snowfall 74.0 51.9  
Snow Depth 0.00 in    
Sea Level Pressure  
Sea Level Pressure 29.83 in    
Wind  
Wind Speed 8 mph (SE)    
Max Wind Speed 18 mph    
Max Gust Speed 67 mph    
Visibility 8 miles    
Events Rain , Thunderstorm    
T = Trace of Precipitation, MM = Missing Value Source: NWS Daily Summary

Daily Weather History Graph

Daily Weather History Graph

Search for Another Location

Airport or City:

Trip Planner

Search our weather history database for the weather conditions in past years. The results will help you decide how hot, cold, wet, or windy it might be!

Date:

Astronomy

Jun. 25, 2013 Rise Set
Actual Time 5:28 AM CDT 8:56 PM CDT
Civil Twilight 4:52 AM CDT 9:32 PM CDT
Nautical Twilight 4:04 AM CDT 10:20 PM CDT
Astronomical Twilight 3:04 AM CDT 11:20 PM CDT
Moon 10:35 PM CDT (6/25) 8:14 AM CDT (6/25)
Length of Visible Light 16h 40m
Length of Day
15h 27m
Waning Gibbous, 92% of the Moon is Illuminated
Jun 25
Waning Gibbous
Jun 29
Last Quarter
Jul 8
New
Jul 15
First Quarter
Jul 22
Full

Hourly Weather History & Observations

Time (CDT) Temp. Heat Index Dew Point Humidity Pressure Visibility Wind Dir Wind Speed Gust Speed Precip Events Conditions
12:03 AM 66.2 °F - 64.4 °F 94% 29.88 in 1.5 mi NE 8.1 mph - 0.24 in Rain , Thunderstorm Heavy Thunderstorms and Rain
12:06 AM 66.2 °F - 64.4 °F 94% 29.88 in 2.0 mi NE 8.1 mph - 0.26 in Rain , Thunderstorm Thunderstorms and Rain
12:14 AM 66.2 °F - 64.4 °F 94% 29.87 in 8.0 mi NE 8.1 mph - 0.26 in Rain , Thunderstorm Light Rain
12:54 AM 66.0 °F - 64.9 °F 96% 29.87 in 10.0 mi ENE 5.8 mph - 0.30 in Rain , Thunderstorm Light Rain
1:08 AM 66.2 °F - 64.4 °F 94% 29.88 in 9.0 mi East 6.9 mph - 0.02 in Rain Light Rain
1:15 AM 66.2 °F - 64.4 °F 94% 29.90 in 3.0 mi South 3.5 mph - 0.03 in Rain , Thunderstorm Heavy Thunderstorms and Rain
1:18 AM 66.2 °F - 64.4 °F 94% 29.89 in 1.8 mi SE 8.1 mph - 0.11 in Rain , Thunderstorm Heavy Thunderstorms and Rain
1:27 AM 64.4 °F - 62.6 °F 94% 29.89 in 3.0 mi SE 11.5 mph - 0.21 in Rain , Thunderstorm Thunderstorms and Rain
1:40 AM 64.4 °F - 62.6 °F 94% 29.88 in 1.8 mi East 10.4 mph - 0.38 in Rain , Thunderstorm Heavy Thunderstorms and Rain
1:47 AM 64.4 °F - 62.6 °F 94% 29.89 in 2.0 mi East 8.1 mph - 0.53 in Rain Heavy Rain
1:54 AM 64.9 °F - 63.0 °F 93% 29.88 in 6.0 mi East 8.1 mph - 0.54 in Rain Light Rain
2:16 AM 64.4 °F - 62.6 °F 94% 29.89 in 6.0 mi East 6.9 mph - 0.02 in Rain , Thunderstorm Heavy Thunderstorms and Rain
2:54 AM 64.9 °F - 63.0 °F 93% 29.88 in 3.0 mi East 8.1 mph - 0.21 in Rain , Thunderstorm Heavy Thunderstorms and Rain
3:09 AM 64.4 °F - 62.6 °F 94% 29.90 in 1.8 mi East 4.6 mph - 0.26 in Rain , Thunderstorm Heavy Thunderstorms and Rain
3:18 AM 64.4 °F - 62.6 °F 94% 29.90 in 3.0 mi ENE 6.9 mph - 0.36 in Rain , Thunderstorm Heavy Rain
3:29 AM 64.4 °F - 62.6 °F 94% 29.89 in 10.0 mi ESE 11.5 mph - 0.37 in Rain Light Rain
3:54 AM 64.9 °F - 63.0 °F 93% 29.86 in 10.0 mi East 6.9 mph - 0.37 in Rain Light Rain
4:02 AM 64.4 °F - 64.4 °F 100% 29.87 in 10.0 mi SE 8.1 mph - 0.00 in   Overcast
4:20 AM 66.2 °F - 64.4 °F 94% 29.87 in 10.0 mi SE 6.9 mph 66.7 mph 0.00 in   Overcast
4:54 AM 66.0 °F - 64.0 °F 93% 29.83 in 10.0 mi SE 10.4 mph - 0.00 in   Mostly Cloudy
5:02 AM 64.4 °F - 64.4 °F 100% 29.84 in 10.0 mi SSE 9.2 mph - N/A   Scattered Clouds
5:54 AM 64.0 °F - 62.1 °F 93% 29.83 in 10.0 mi ESE 5.8 mph - N/A   Clear
6:54 AM 66.0 °F - 63.0 °F 90% 29.86 in 10.0 mi SSE 9.2 mph - N/A   Clear
7:37 AM 66.2 °F - 64.4 °F 94% 29.86 in 10.0 mi ESE 10.4 mph - N/A   Mostly Cloudy
7:54 AM 66.9 °F - 64.0 °F 90% 29.85 in 10.0 mi ESE 10.4 mph - N/A   Overcast
8:08 AM 66.2 °F - 64.4 °F 94% 29.85 in 10.0 mi ESE 10.4 mph - N/A   Overcast
8:41 AM 66.2 °F - 64.4 °F 94% 29.84 in 10.0 mi SE 10.4 mph - N/A   Overcast
8:54 AM 68.0 °F - 64.9 °F 90% 29.83 in 10.0 mi SE 11.5 mph - N/A   Mostly Cloudy
9:15 AM 69.8 °F - 66.2 °F 88% 29.82 in 10.0 mi East 9.2 mph - N/A   Scattered Clouds
9:54 AM 71.1 °F - 66.9 °F 87% 29.79 in 8.0 mi NE 8.1 mph - N/A   Clear
10:05 AM 71.6 °F - 68.0 °F 88% 29.84 in 8.0 mi South 15.0 mph 19.6 mph N/A   Scattered Clouds
10:18 AM 69.8 °F - 66.2 °F 88% 29.84 in 8.0 mi South 17.3 mph 26.5 mph N/A   Mostly Cloudy
10:54 AM 70.0 °F - 66.9 °F 90% 29.82 in 7.0 mi SSE 8.1 mph - N/A   Overcast
11:39 AM 73.4 °F - 68.0 °F 83% 29.84 in 10.0 mi South 5.8 mph - N/A   Mostly Cloudy
11:54 AM 75.9 °F - 70.0 °F 82% 29.81 in 10.0 mi SE 5.8 mph - N/A   Mostly Cloudy
12:25 PM 78.8 °F - 69.8 °F 74% 29.82 in 10.0 mi SE 6.9 mph - N/A   Mostly Cloudy
12:54 PM 77.0 °F - 70.0 °F 79% 29.81 in 10.0 mi ESE 5.8 mph - N/A   Overcast
1:54 PM 80.1 °F 83.6 °F 71.1 °F 74% 29.79 in 10.0 mi SE 8.1 mph - N/A   Mostly Cloudy
2:10 PM 80.6 °F 84.6 °F 71.6 °F 74% 29.80 in 10.0 mi East 6.9 mph - N/A   Scattered Clouds
2:54 PM 82.0 °F 86.7 °F 72.0 °F 71% 29.78 in 10.0 mi South 10.4 mph - N/A   Partly Cloudy
3:44 PM 82.4 °F 87.2 °F 71.6 °F 70% 29.80 in 10.0 mi SSW 11.5 mph - N/A   Mostly Cloudy
3:52 PM 82.4 °F 88.2 °F 73.4 °F 74% 29.80 in 10.0 mi South 11.5 mph - N/A   Mostly Cloudy
3:54 PM 82.0 °F 87.4 °F 73.0 °F 74% 29.78 in 10.0 mi South 10.4 mph - N/A   Mostly Cloudy
4:41 PM 80.6 °F 84.6 °F 71.6 °F 74% 29.81 in 10.0 mi South 11.5 mph - N/A   Mostly Cloudy
4:54 PM 81.0 °F 85.2 °F 72.0 °F 74% 29.78 in 10.0 mi South 9.2 mph - N/A   Mostly Cloudy
5:54 PM 81.0 °F 85.2 °F 72.0 °F 74% 29.77 in 10.0 mi South 9.2 mph - N/A   Partly Cloudy
6:54 PM 80.1 °F 84.2 °F 73.0 °F 79% 29.76 in 10.0 mi SSE 6.9 mph - N/A   Clear
7:54 PM 79.0 °F - 72.0 °F 79% 29.76 in 9.0 mi Calm Calm - N/A   Clear
8:54 PM 77.0 °F - 72.0 °F 84% 29.75 in 8.0 mi North - - N/A   Clear
9:54 PM 75.0 °F - 71.1 °F 87% 29.76 in 8.0 mi SSE 8.1 mph - N/A   Clear
10:54 PM 73.0 °F - 71.1 °F 93% 29.76 in 8.0 mi SSE 5.8 mph - N/A   Clear
11:54 PM 73.0 °F - 71.1 °F 93% 29.73 in 5.0 mi SSE 6.9 mph - N/A   Clear